"Time","Temp","Dewpoint","Humidity","Pressure","Direction","Speed","Gust","Precip","PrecipRate"
"00:04:55","34.1","33.3","97","30.01","324","1.7","4","0.00","0.01"
"00:09:58","34.1","33.3","97","30.01","327","1","3","0.00","0.01"
"00:14:58","34","33.2","97","30.01","328","0.2","1.2","0.00","0.01"
"00:19:58","33.9","32.9","96","30.01","328","0","0","0.00","0.01"
"00:24:56","33.7","32.7","96","30.01","328","0","0","0.00","0.01"
"00:29:56","33.6","32.6","96","30.01","328","0","0","0.00","0.01"
"00:34:57","33.5","32.5","96","30.01","328","0","0","0.00","0.01"
"00:39:59","33.3","32.3","96","30.00","328","0","0","0.00","0.01"
"00:44:59","33.1","32.1","96","30.00","328","0","0","0.00","0.00"
"00:49:57","32.9","31.9","96","30.00","328","0","0","0.00","0.00"
"00:54:57","32.7","31.7","96","30.00","328","0","0","0.00","0.00"
"00:59:59","32.5","31.5","96","30.01","328","0","0","0.00","0.00"
"01:04:57","32.3","31.3","96","30.01","328","0","0","0.00","0.00"
"01:09:58","32.1","31.1","96","30.01","328","0","0","0.00","0.00"
"01:14:59","31.9","30.9","96","30.01","328","0","0","0.00","0.00"
"01:19:56","31.8","30.8","96","30.01","323","0.1","2","0.00","0.00"
"01:24:59","31.7","30.7","96","30.01","323","0.8","2.3","0.00","0.00"
"01:29:58","31.6","30.6","96","30.01","323","0.1","1.2","0.00","0.00"
"01:34:56","31.4","30.4","96","30.01","323","0.3","2.3","0.00","0.00"
"01:39:58","31.4","30.4","96","30.01","323","0.7","2.3","0.00","0.00"
"01:44:59","31.3","30.3","96","30.01","323","1","2.3","0.00","0.00"
"01:49:57","31.2","30.2","96","30.01","323","0.5","2.3","0.00","0.00"
"01:54:59","31.2","30.2","96","30.01","323","0.1","2.3","0.00","0.00"
"01:59:59","31.2","30.2","96","30.01","323","0","0","0.00","0.00"
"02:04:57","31.2","30.2","96","30.01","323","0","0","0.00","0.00"
"02:09:58","31.1","30.1","96","30.01","323","0","0","0.00","0.00"
"02:14:57","31.1","30.1","96","30.01","323","0","0","0.00","0.00"
"02:19:59","31","30","96","30.01","323","0","0","0.00","0.00"
"02:24:57","31","30","96","30.01","323","0","0","0.00","0.00"
"02:29:57","31","30","96","30.01","323","0","0","0.00","0.00"
"02:34:58","31","30.1","96.4","30.01","323","0","0","0.00","0.00"
"02:39:58","31.1","30.2","96.7","30.01","323","0","0","0.00","0.00"
"02:44:56","31","30.1","96.4","30.01","323","0","0","0.00","0.00"
"02:49:57","31","30.2","97","30.01","323","0","0","0.00","0.00"
"02:54:59","31","30.2","97","30.01","323","0","0","0.00","0.00"
"02:59:59","31","30.2","97","30.01","323","0","0","0.00","0.00"
"03:04:57","31","30.2","97","30.01","323","0","0","0.00","0.00"
"03:09:57","30.9","30.1","97","30.01","323","0","0","0.00","0.00"
"03:14:59","30.7","29.8","96.2","30.01","323","0","0","0.00","0.00"
"03:19:57","30.6","29.6","96","30.01","323","0","0","0.00","0.00"
"03:24:58","30.5","29.5","96","30.01","323","0","0","0.00","0.00"
"03:29:59","30.5","29.5","96.1","30.01","323","0","0","0.00","0.00"
"03:34:57","30.5","29.8","97","30.01","323","0","0","0.00","0.00"
"03:39:58","30.5","29.8","97","30.01","323","0","0","0.00","0.00"
"03:44:56","30.5","29.8","97","30.01","323","0","0","0.00","0.00"
"03:49:59","30.5","29.8","97","30.01","323","0","0","0.00","0.00"
"03:54:56","30.6","29.9","97","30.01","324","0","3","0.00","0.00"
"03:59:57","30.6","29.9","97","30.01","324","0.2","3.5","0.00","0.00"
"04:04:58","30.5","29.8","97","30.01","324","0","1.2","0.00","0.00"
"04:09:56","30.5","29.8","97","30.01","324","0","1","0.00","0.00"
"04:14:59","30.3","29.6","97","30.01","324","0","0","0.00","0.00"
"04:19:56","30.3","29.6","97","30.01","324","0","0","0.00","0.00"
"04:24:58","30.2","29.4","96.6","30.01","324","0","0","0.00","0.00"
"04:29:58","30.1","29.1","96","30.02","324","0","0","0.00","0.00"
"04:34:56","30.1","29.1","96","30.02","324","0","0","0.00","0.00"
"04:39:57","30","29","96","30.02","324","0","0","0.00","0.00"
"04:44:58","30","29","96","30.02","324","0","0","0.00","0.00"
"04:49:58","29.9","29.1","96.6","30.02","324","0","0","0.00","0.00"
"04:54:58","29.9","29.1","96.9","30.02","324","0.6","2.3","0.00","0.00"
"04:59:58","29.9","29.2","97","30.02","324","0.5","2.3","0.00","0.00"
"05:04:58","29.9","29.2","97","30.02","324","0","0","0.00","0.00"
"05:09:59","29.8","29","96.8","30.02","324","0","0","0.00","0.00"
"05:14:56","29.6","28.6","96","30.03","324","0","0","0.00","0.00"
"05:19:56","29.5","28.5","96","30.03","324","0","0","0.00","0.00"
"05:24:57","29.5","28.5","96","30.03","324","0","0","0.00","0.00"
"05:29:56","29.5","28.5","96","30.03","324","0","0","0.00","0.00"
"05:34:56","29.4","28.4","96","30.03","324","0","0","0.00","0.00"
"05:39:56","29.3","28.3","96","30.03","324","0","1","0.00","0.00"
"05:44:56","29.3","28.5","96.5","30.04","324","0.2","1.2","0.00","0.00"
"05:49:56","29.3","28.6","97","30.04","324","0.3","1.2","0.00","0.00"
"05:54:56","29.2","28.5","97","30.04","324","0.1","1.2","0.00","0.00"
"05:59:59","29.2","28.3","96.4","30.04","324","0","0","0.00","0.00"
"06:04:56","29","28","96","30.04","324","0","0","0.00","0.00"
"06:09:57","28.9","27.9","96","30.04","324","0","0","0.00","0.00"
"06:14:57","28.8","27.8","96","30.04","324","0","0","0.00","0.00"
"06:19:56","28.7","27.7","96","30.04","324","0","0","0.00","0.00"
"06:24:56","28.6","27.6","96","30.04","324","0","0","0.00","0.00"
"06:29:59","28.5","27.5","96","30.05","324","0","0","0.00","0.00"
"06:34:56","28.4","27.4","96","30.05","324","0","0","0.00","0.00"
"06:39:58","28.4","27.4","96","30.05","324","0","0","0.00","0.00"
"06:44:58","28.3","27.3","96","30.05","324","0","0","0.00","0.00"
"06:49:58","28.2","27.2","96","30.05","324","0","0","0.00","0.00"
"06:54:59","28.1","27.1","96","30.05","324","0","0","0.00","0.00"
"06:59:58","28","27","96","30.06","324","0","0","0.00","0.00"
"07:04:56","27.9","26.9","96","30.06","324","0","0","0.00","0.00"
"07:09:56","28","27","96","30.06","324","0","0","0.00","0.00"
"07:14:59","28","27.2","96.6","30.06","324","0","0","0.00","0.00"
"07:19:56","28.1","27.4","97","30.06","324","0","0","0.00","0.00"
"07:24:58","28.2","27.5","97","30.06","324","0.4","1.2","0.00","0.00"
"07:29:57","28.2","27.5","97","30.06","324","0","0","0.00","0.00"
"07:34:59","28.2","27.5","97","30.06","324","0","0","0.00","0.00"
"07:39:59","28.3","27.6","97","30.06","324","0","0","0.00","0.00"
"07:44:56","28.3","27.5","96.8","30.07","324","0","0","0.00","0.00"
"07:49:56","28.3","27.4","96.2","30.07","324","0","0","0.00","0.00"
"07:54:57","28.3","27.3","96","30.07","324","0","0","0.00","0.00"
"07:59:56","28.2","27.2","96","30.08","324","0","0","0.00","0.00"
"08:04:58","28.2","27.2","96","30.08","324","0","0","0.00","0.00"
"08:09:58","28.3","27.3","96","30.08","324","0","0","0.00","0.00"
"08:14:58","28.3","27.3","96","30.08","324","0","0","0.00","0.00"
"08:19:58","28.5","27.7","96.6","30.08","324","0","0","0.00","0.00"
"08:24:59","28.6","27.9","97","30.08","324","0","0","0.00","0.00"
"08:29:57","28.9","28.2","97","30.08","324","0","0","0.00","0.00"
"08:34:57","29.5","28.8","97","30.08","324","0","0","0.00","0.00"
"08:39:56","30.2","29.6","97.2","30.08","324","0","0","0.00","0.00"
"08:44:57","31.1","30.4","97.5","30.08","324","0.2","1.2","0.00","0.00"
"08:49:57","31.7","31.2","97.8","30.08","324","0.1","1.2","0.00","0.00"
"08:54:57","32.3","31.8","98","30.08","324","0","1","0.00","0.00"
"08:59:56","32.7","32.2","98","30.08","324","0.5","2","0.00","0.00"
"09:04:57","33.3","32.8","98","30.08","324","0.8","2.3","0.00","0.00"
"09:09:58","33.9","33.4","98","30.08","324","0","2","0.00","0.00"
"09:14:59","34.2","33.7","98","30.09","324","0.1","1.2","0.00","0.00"
"09:19:56","34.6","34.1","98","30.09","324","0","0","0.00","0.00"
"09:24:56","35.3","34.8","98","30.09","324","0","0","0.00","0.00"
"09:29:57","35.9","35.4","98","30.09","324","0","0","0.00","0.00"
"09:34:58","36.3","35.8","98","30.09","324","0","0","0.00","0.00"
"09:39:58","36.5","36","98","30.09","324","0","0","0.00","0.00"
"09:44:58","36.5","36","98","30.09","324","0","0","0.00","0.00"
"09:49:56","36.5","35.8","97.3","30.09","324","0","0","0.00","0.00"
"09:54:58","36.7","35.9","97","30.09","324","0.3","2.3","0.00","0.00"
"09:59:00","36.9","36","96.7","30.09","324","0.7","3","0.00","0.00"
"10:04:57","37","36.2","97","30.09","324","1","3.5","0.00","0.00"
"10:09:59","37.3","36.5","97","30.09","324","0","2","0.00","0.00"
"10:14:59","37.5","36.5","96","30.09","323","0","0","0.00","0.00"
"10:19:56","37.7","36.8","96.5","30.09","323","0","0","0.00","0.00"
"10:24:57","38.1","37.1","96","30.09","323","0","0","0.00","0.00"
"10:29:57","38.4","37.4","96","30.09","322","0.1","3","0.00","0.00"
"10:34:58","38.7","37.7","96","30.08","322","1.2","3.5","0.00","0.00"
"10:39:57","38.9","37.7","95.3","30.08","322","1.2","3.5","0.00","0.00"
"10:44:58","39.2","37.9","94.9","30.08","322","0.5","2.3","0.00","0.00"
"10:49:56","39.5","38.1","94.6","30.08","322","0","1.2","0.00","0.00"
"10:54:57","40","38.6","94.8","30.08","322","0","0","0.00","0.00"
"10:59:59","40.4","38.6","93.5","30.08","323","0.2","2.3","0.00","0.00"
"11:04:59","40.6","38.5","92.1","30.08","306","0","1.2","0.00","0.00"
"11:09:56","40.7","38.5","91.5","30.08","300","0","0","0.00","0.00"
"11:14:56","40.9","38.7","91.7","30.08","279","0","0","0.00","0.00"
"11:19:57","41.2","38.8","91.1","30.07","280","0.2","2.3","0.00","0.00"
"11:24:58","41.3","38.4","89.1","30.07","295","0.8","4","0.00","0.00"
"11:29:58","41.5","38.7","89.9","30.07","338","0.1","2","0.00","0.00"
"11:34:59","41.7","38.8","89.5","30.06","332","0.5","2.3","0.00","0.00"
"11:39:56","41.9","38.4","87.5","30.06","335","1","4","0.00","0.00"
"11:44:56","42.1","38.6","87.4","30.06","338","0.5","3.5","0.00","0.00"
"11:49:58","42.4","39","87.5","30.05","338","0.5","2.3","0.00","0.00"
"11:54:58","42.8","39.1","86.7","30.05","341","0.7","3.5","0.00","0.00"
"11:59:58","43","38.9","85.1","30.05","338","1.6","5","0.00","0.00"
"12:04:59","43.2","38.9","84.7","30.04","338","1.7","5","0.00","0.00"
"12:09:40","43.3","38.6","83.3","30.04","351","2.1","5","0.00","0.00"
"12:14:57","43.5","38.6","82.7","30.04","332","1.9","5","0.00","0.00"
"12:19:58","43.5","38.2","81.4","30.04","309","1.5","4","0.00","0.00"
"12:24:58","43.6","38.3","81.4","30.04","336","1.2","4","0.00","0.00"
"12:29:58","43.6","38.3","81.3","30.04","329","1.3","5","0.00","0.00"
"12:34:56","43.6","38.3","81.1","30.03","319","2.4","5","0.00","0.00"
"12:39:56","43.6","37.8","79.8","30.03","284","2","7","0.00","0.00"
"12:44:56","43.6","37.8","79.8","30.03","303","2.3","8","0.00","0.00"
"12:49:57","43.6","37.2","77.9","30.03","329","3.4","7","0.00","0.00"
"12:54:58","43.6","37","77.5","30.02","320","3.5","11","0.00","0.00"
"12:59:57","43.4","36.3","75.7","30.02","310","3.1","12","0.00","0.00"
"13:04:57","43.5","36.7","76.9","30.02","312","3.3","10","0.00","0.00"
"13:09:57","43.4","36.4","76.1","30.02","319","3.1","10.4","0.00","0.00"
"13:14:59","43.5","36.5","76.4","30.02","325","2.8","7","0.00","0.00"
"13:19:56","43.6","36.8","76.7","30.01","311","2.1","5","0.00","0.00"
"13:24:56","43.7","36.6","76","30.01","338","2.7","6","0.00","0.00"
"13:29:56","43.8","36.7","75.9","30.01","331","3","6","0.00","0.00"
"13:34:57","43.9","36.2","74.5","30.01","316","3.2","5","0.00","0.00"
"13:39:56","43.8","36.3","74.7","30.01","324","2.6","6","0.00","0.00"
"13:44:57","43.8","36.5","75.3","30.01","309","1.6","4","0.00","0.00"
"13:49:57","44","37.3","76.9","30.01","309","1","3.5","0.00","0.00"
"13:54:58","44.2","37.4","76.9","30.01","312","2.2","6","0.00","0.00"
"13:59:56","44.1","36.7","75","30.01","328","2.7","8.1","0.00","0.00"
"14:04:08","44","36.3","74.3","30.01","308","2.1","6","0.00","0.00"
"14:09:57","43.8","36.1","74.3","30.01","322","2.9","6","0.00","0.00"
"14:14:45","43.6","36","74.2","30.01","324","3.3","7","0.00","0.00"
"14:19:37","43.5","35.7","73.8","30.01","317","3.5","7","0.00","0.00"
"14:24:57","43.4","35.8","74.2","30.01","338","2.6","6","0.00","0.00"
"14:29:44","43.4","35.8","74.1","30.01","354","2.5","6","0.00","0.00"
"14:34:56","43.4","35.8","74.2","30.01","336","2.7","5.8","0.00","0.00"
"14:39:59","43.5","36.2","75.4","30.01","322","2.1","5","0.00","0.00"
"14:44:59","43.5","35.9","74.3","30.01","343","1.8","5","0.00","0.00"
"14:49:57","43.5","36.1","75.1","30.01","343","1.1","3.5","0.00","0.00"
"14:54:57","43.5","36.3","75.5","30.01","340","1.3","3.5","0.00","0.00"
"14:59:57","43.6","36.3","75.2","30.01","333","1.2","4","0.00","0.00"
"15:04:57","43.6","36.1","74.8","30.01","331","0.7","3.5","0.00","0.00"
"15:09:58","43.5","36.1","75.1","30.01","336","1.6","4","0.00","0.00"
"15:14:59","43.4","36","75.1","30.01","344","1.5","4","0.00","0.00"
"15:19:59","43.3","35.9","74.8","30.01","339","1.2","5","0.00","0.00"
"15:24:59","43.2","35.9","75.2","30.01","336","2.4","4","0.00","0.00"
"15:29:58","43.1","35.6","74.7","30.01","336","2.3","7","0.00","0.00"
"15:34:54","43","35.6","75","30.01","338","2.2","6","0.00","0.00"
"15:39:37","42.9","35.6","75.2","30.01","324","2","4","0.00","0.00"
"15:44:56","42.8","35.7","75.8","30.01","326","1.4","5","0.00","0.00"
"15:49:56","42.7","35.6","75.8","30.01","331","1.4","5","0.00","0.00"
"15:54:59","42.6","35.4","75.6","30.01","343","1.6","4","0.00","0.00"
"15:59:59","42.5","35.4","75.8","30.01","333","1.7","4","0.00","0.00"
"16:04:59","42.4","35.3","75.8","30.01","349","1.3","4","0.00","0.00"
"16:09:57","42.3","35.3","76","30.01","354","0.3","3","0.00","0.00"
"16:14:45","42.2","35.3","76.2","30.01","355","0.6","3","0.00","0.00"
"16:19:57","42.1","35.4","77.1","30.01","355","0.4","2.3","0.00","0.00"
"16:24:57","42","35.5","77.5","30.01","355","0","2.3","0.00","0.00"
"16:29:56","41.9","35.7","78.4","30.01","355","0.2","1.2","0.00","0.00"
"16:34:56","41.7","35.8","79","30.01","355","0.1","2.3","0.00","0.00"
"16:39:59","41.6","35.9","80","30.01","355","0.1","2","0.00","0.00"
"16:44:42","41.5","35.6","79.2","30.01","355","0.8","2.3","0.00","0.00"
"16:49:58","41.4","35.5","79.3","30.01","355","0.8","2.3","0.00","0.00"
"16:54:59","41.4","35.5","79.5","30.01","355","0.9","2.3","0.00","0.00"
"16:59:38","41.3","35.6","80","30.01","355","0.8","2.3","0.00","0.00"
"17:04:59","41.2","35.6","80.2","30.01","353","1.4","3.5","0.00","0.00"
"17:09:57","41.2","35.5","80.2","30.01","354","1","3.5","0.00","0.00"
"17:14:59","41.1","35.6","80.9","30.02","346","0.7","3","0.00","0.00"
"17:19:59","41","35.5","80.8","30.02","344","1","2.3","0.00","0.00"
"17:24:56","40.9","35.6","81.4","30.02","344","0.5","2.3","0.00","0.00"
"17:29:57","40.8","35.6","81.5","30.02","344","0.6","2.3","0.00","0.00"
"17:34:58","40.8","35.6","81.6","30.02","344","0.1","1.2","0.00","0.00"
"17:39:58","40.7","35.4","81.2","30.02","344","0","1.2","0.00","0.00"
"17:44:59","40.7","35.6","82","30.03","344","0","1.2","0.00","0.00"
"17:49:59","40.6","35.5","82","30.03","344","0","0","0.00","0.00"
"17:54:00","40.5","35.6","82.7","30.03","344","0","0","0.00","0.00"
"17:59:50","40.4","35.6","83","30.03","344","0","0","0.00","0.00"
"18:04:59","40.3","35.7","83.7","30.03","344","0","0","0.00","0.00"
"18:09:57","40.2","35.8","84.2","30.03","344","0","0","0.00","0.00"
"18:14:57","40","35.6","84","30.03","344","0","0","0.00","0.00"
"18:19:56","39.9","35.8","85","30.03","344","0","0","0.00","0.00"
"18:24:59","39.8","35.8","85.3","30.03","344","0","0","0.00","0.00"
"18:29:56","39.7","35.8","85.9","30.03","344","0","0","0.00","0.00"
"18:34:59","39.6","35.5","85","30.03","344","0","0","0.00","0.00"
"18:39:58","39.5","35.5","85.3","30.03","344","0","0","0.00","0.00"
"18:44:58","39.5","35.7","86","30.03","344","0","0","0.00","0.00"
"18:49:58","39.5","35.7","86.1","30.03","344","0","0","0.00","0.00"
"18:54:58","39.4","35.9","87","30.03","344","0","0","0.00","0.00"
"18:59:57","39.3","35.6","86.3","30.03","344","0","0","0.00","0.00"
"19:04:29","39.3","35.5","86","30.03","344","0","1","0.00","0.00"
"19:09:58","39.4","35.5","85.7","30.03","347","0.1","1.2","0.00","0.00"
"19:14:59","39.4","35.6","86.1","30.03","347","0","1.2","0.00","0.00"
"19:19:58","39.3","35.9","87.6","30.03","347","0","0","0.00","0.00"
"19:24:58","39.2","35.9","87.9","30.03","347","0","0","0.00","0.00"
"19:29:57","39.1","35.6","86.9","30.03","347","0","1.2","0.00","0.00"
"19:34:56","39.1","35.3","86","30.02","347","0","0","0.00","0.00"
"19:39:59","39.2","35.4","86","30.02","347","0","0","0.00","0.00"
"19:44:59","39.1","35.6","87.2","30.02","347","0.2","1.2","0.00","0.00"
"19:49:59","38.9","35.6","88","30.02","347","0.1","1.2","0.00","0.00"
"19:54:56","38.8","35.6","88.1","30.02","347","0","1.2","0.00","0.00"
"19:59:59","38.8","35.6","88","30.02","347","0","1.2","0.00","0.00"
"20:04:59","38.8","35.6","88","30.01","340","0.5","3.5","0.00","0.00"
"20:09:56","38.7","35.7","89","30.01","340","0.1","3","0.00","0.00"
"20:14:59","38.6","35.6","89","30.01","340","0.5","2.3","0.00","0.00"
"20:19:59","38.4","35.6","89.4","30.01","340","0.3","2.3","0.00","0.00"
"20:24:59","38.3","35.6","90","30.00","340","0","0","0.00","0.00"
"20:29:58","38.3","35.6","90","30.00","340","0","0","0.00","0.00"
"20:34:57","38.2","35.7","90.9","30.00","340","0.3","1.2","0.00","0.00"
"20:39:59","38","35.6","91","30.00","340","0.4","1.2","0.00","0.00"
"20:44:59","38","35.6","91","30.00","340","0","1.2","0.00","0.00"
"20:49:59","37.9","35.5","91","30.00","340","0","0","0.00","0.00"
"20:54:59","37.9","35.5","91","30.00","340","0","0","0.00","0.00"
"20:59:59","37.9","35.5","91","30.00","340","0","0","0.00","0.00"
"21:04:59","37.9","35.5","91","30.00","340","0","0","0.00","0.00"
"21:09:57","37.9","35.5","91","30.00","340","0","0","0.00","0.00"
"21:14:56","37.9","35.4","90.8","30.00","340","0","0","0.00","0.00"
"21:19:59","37.8","35.1","90","30.00","340","0","0","0.00","0.00"
"21:24:59","37.8","35.1","90","30.00","340","0","1","0.00","0.00"
"21:29:57","37.9","35.2","90","30.00","340","0","1","0.00","0.00"
"21:34:56","37.9","35.2","90","30.00","340","0","0","0.00","0.00"
"21:39:58","37.9","35.2","90","30.00","340","0","0","0.00","0.00"
"21:44:56","38","35.4","90.4","30.00","340","0","0","0.00","0.00"
"21:49:56","38","35.4","90.4","30.00","340","0","0","0.00","0.00"
"21:54:56","38","35.3","90","30.00","340","0","0","0.00","0.00"
"21:59:58","37.9","35.2","90","30.00","340","0","0","0.00","0.00"
"22:04:58","37.9","35.4","90.6","30.00","340","0","0","0.00","0.00"
"22:09:59","37.8","35.4","91","30.00","340","0","0","0.00","0.00"
"22:14:58","37.7","35.3","91","30.00","340","0","0","0.00","0.00"
"22:19:57","37.7","35.3","91","29.99","340","0","0","0.00","0.00"
"22:24:56","37.7","35.4","91.5","29.99","340","0","0","0.00","0.00"
"22:29:58","37.7","35.6","92","29.99","340","0","0","0.00","0.00"
"22:34:56","37.6","35.5","92","29.99","340","0","0","0.00","0.00"
"22:39:57","37.6","35.5","92","29.99","340","0","0","0.00","0.00"
"22:44:59","37.5","35.4","92","29.99","340","0","0","0.00","0.00"
"22:49:57","37.5","35.4","92","29.98","340","0","0","0.00","0.00"
"22:54:56","37.4","35.3","92","29.98","340","0","0","0.00","0.00"
"22:59:57","37.4","35.3","92","29.98","340","0","0","0.00","0.00"
"23:04:57","37.4","35.3","92","29.98","340","0","0","0.00","0.00"
"23:09:57","37.3","35.5","92.8","29.98","340","0","0","0.00","0.00"
"23:14:56","37.3","35.5","93","29.98","340","0","0","0.00","0.00"
"23:19:56","37.3","35.5","93","29.97","340","0","0","0.00","0.00"
"23:24:58","37.3","35.5","93","29.97","340","0","0","0.00","0.00"
"23:29:56","37.3","35.5","93","29.97","340","0","0","0.00","0.00"
"23:34:59","37.3","35.5","93","29.97","340","0","0","0.00","0.00"
"23:39:57","37.2","35.3","92.7","29.97","340","0","0","0.00","0.00"
"23:44:56","37.1","35.2","92.7","29.97","340","0","0","0.00","0.00"
"23:49:59","37.1","35","92","29.96","340","0","0","0.00","0.00"
"23:54:58","37","35.1","92.6","29.96","340","0","0","0.00","0.00"
"23:59:56","37","35.2","93","29.96","340","0","0","0.00","0.00"
